AirNav   Everest Fuels
 
 1193 users online  

L54 Agua Caliente Springs Airport
Agua Caliente Springs, California, USA

GOING TO AGUA CALIENTE SPRINGS?


FAA INFORMATION EFFECTIVE 21 MAY 2020

Location

FAA Identifier: L54
Lat/Long: 32-57-20.5000N 116-17-41.0000W
32-57.341667N 116-17.683333W
32.9556944,-116.2947222
(estimated)
Elevation: 1220 ft. / 372 m (estimated)
Variation: 13E (1985)
From city: 1 mile NE of AGUA CALIENTE SPRINGS, CA
Time zone: UTC -7 (UTC -8 during Standard Time)
Zip code: 92036

Airport Operations

Airport use: Open to the public
Activation date: 07/1960
Control tower: no
ARTCC: LOS ANGELES CENTER
FSS: SAN DIEGO FLIGHT SERVICE STATION
NOTAMs facility: SAN (NOTAM-D service available)
Attendance: UNATNDD
Pattern altitude: 2020 ft. MSL
Wind indicator: yes
Segmented circle: yes

Airport Communications

CTAF: 122.9
WX AWOS-3P at L08 (18 nm N): 126.575 (760-767-3308)

Nearby radio navigation aids

VOR radial/distance  VOR name  Freq  Var
JLIr112/18.4JULIAN VORTAC114.0015E

Airport Services

Parking: tiedowns
Airframe service: NONE
Powerplant service: NONE
Bottled oxygen: NONE
Bulk oxygen: NONE

Runway Information

Runway 11/29

Dimensions: 2500 x 60 ft. / 762 x 18 m
Surface: asphalt, in good condition
Weight bearing capacity: 
Single wheel: 12.0
Operational restrictions: CLSD SS-SR; NOT LGTD.
RUNWAY 11  RUNWAY 29
Latitude: 32-57.439708N32-57.244717N
Longitude: 116-17.898627W116-17.467657W
Traffic pattern: leftright
HILL 0.5 MI W OF AP.
Runway heading: 105 magnetic, 118 true285 magnetic, 298 true
Markings: basic, in good conditionbasic, in good condition
Runway end identifier lights: nono
Obstructions: 460 ft. hill, 2500 ft. from runway, 5:1 slope to clearnone

Airport Ownership and Management from official FAA records

Ownership: Publicly-owned
Owner: COUNTY OF SAN DIEGO
1960 JOE CROSSON DRIVE
EL CAJON, CA 92020-1142
Phone 619-956-4800
Manager: MS. CATHE JOHNSON
SAN DIEGO COUNTY AIRPORTS, 1960 JOE CROSSON DRIVE
EL CAJON, CA 92020
Phone (619) 956-4800
AMGRS OFFICE AT GILLESPIE FIELD.

Airport Operational Statistics

Aircraft operations: avg 86/week *
99% transient general aviation
1% military
* for 12-month period ending 28 February 2019

Additional Remarks

HAZARDOUS DURING RAINS OR FLASH FLOODS.
OBSTRN PART 77-MTNS S & W OF RWY, DIRT BERM, DITCH, SAND BOTH SIDES OF RWY.
ACFT TIED DOWN WITHIN PRIMARY SFC.
WIND PERMITTING USE OF RY 29 FOR LANDING AND RY 11 FOR DEPARTURE RECOMMENDED DUE TO 460 FT HILL 1/2 MILE WEST OF AIRPORT
ACFT SHALL SELF ANNC ON CTAF PRIOR TO LDG OR DEP.
PPR FOR ALL MIL ACFT, COPTER SKID/RUN-ON LDG PROHIBITED; CTC AMGR.
FOR CD CTC LOS ANGELES ARTCC AT 661-575-2079.

Instrument Procedures

There are no published instrument procedures at L54.

Some nearby airports with instrument procedures:

L08 - Borrego Valley Airport (18 nm N)
KRNM - Ramona Airport (32 nm W)
KNJK - El Centro NAF Airport (Vraciu Field) (32 nm E)
KSEE - Gillespie Field Airport (35 nm W)
KIPL - Imperial County Airport (37 nm E)
 
Loc | Ops | Rwys | IFR | FBO | Links
Com | Nav | Svcs | Stats | Notes
Area around L54 (Agua Caliente Springs Airport)
 
Road maps at: MapQuest Bing Google
 
Aerial photo
WARNING: Photo may not be current or correct
Aerial photo of L54 (Agua Caliente Springs Airport)
Do you have a better or more recent aerial photo of Agua Caliente Springs Airport that you would like to share? If so, please send us your photo.

 
Sectional chart

 
Airport distance calculator
Flying to Agua Caliente Springs Airport? Find the distance to fly.

From to L54

Sunrise and sunset
Times for 25-May-2020
 Local
(UTC-7)
 Zulu
(UTC)
Morning civil twilight05:1312:13
Sunrise05:4112:41
Sunset19:4402:44
Evening civil twilight20:1203:12

Current date and time
Zulu (UTC)  25-May-2020 18:19:10
Local (UTC-7)  25-May-2020 11:19:10
 
METAR
KL08 
18nm N 
251755Z AUTO 12014KT 10SM CLR 35/M06 A2985 RMK AO2
KCZZ 
21nm SW 
251752Z AUTO 07014G21KT 30/M01 A2993 RMK AO1 SLP103 T03001011 10300 20072 53002
KRNM 
32nm W 
251753Z VRB04KT 10SM CLR 27/13 A2991 RMK AO2 SLP115 T02720133 10272 20078 58006
KNJK 
33nm E 
251756Z AUTO 09006KT 10SM CLR 35/M04 A2984 RMK AO2 SLP121 T03501039 10350 20200 50005 $
KSEE 
35nm W 
251747Z VRB05KT 10SM SKC 22/14 A2991
TAF
KIPL 
37nm E 
251740Z 2518/2618 36006KT P6SM SKC FM260200 26005KT P6SM SKC FM261500 VRB05KT P6SM SKC
NOTAMs
Click for the latest NOTAMs
NOTAMs are issued by the DoD/FAA and will open in a separate window not controlled by AirNav.

 

 
 

Things to do: Attractions on or near the airport

  
 Business Name 
 
 Contact 
 
 Services / Description 
 
Distance
 
Comments
  
Agua Caliente County Park no information available

If you are affiliated with Agua Caliente County Park and would like to show here your services, contact info, web link, logo, and more, click here
0.2 miles  
   write
 

Would you like to see your business listed on this page?

 If your business provides an interesting product or service to pilots, flight crews, aircraft, or users of the Agua Caliente Springs Airport, you should consider listing it here.  To start the listing process, click on the button below
 
Add a business
 

Other Pages about Agua Caliente Springs Airport

www.co.san-diego.ca.us/...
 
Update a link
 
Copyright © AirNav, LLC. All rights reserved. Privacy Policy  Contact